Year,Month,Day,Hour,Minute,Value (Times are PST for temperature in C)
2002,05,09,00,00,6.90
2002,05,09,00,01,6.90
2002,05,09,00,02,6.80
2002,05,09,00,03,6.80
2002,05,09,00,04,6.80
2002,05,09,00,05,6.80
2002,05,09,00,06,6.80
2002,05,09,00,07,6.80
2002,05,09,00,08,6.80
2002,05,09,00,09,6.80
2002,05,09,00,10,6.90
2002,05,09,00,11,6.90
2002,05,09,00,12,6.90
2002,05,09,00,13,7.00
2002,05,09,00,14,7.00
2002,05,09,00,15,7.00
2002,05,09,00,16,7.00
2002,05,09,00,17,7.00
2002,05,09,00,18,7.00
2002,05,09,00,19,7.00
2002,05,09,00,20,7.00
2002,05,09,00,21,7.00
2002,05,09,00,22,7.00
2002,05,09,00,23,7.00
2002,05,09,00,24,6.90
2002,05,09,00,25,6.90
2002,05,09,00,26,6.90
2002,05,09,00,27,6.90
2002,05,09,00,28,6.80
2002,05,09,00,29,6.80
2002,05,09,00,30,6.80
2002,05,09,00,31,6.80
2002,05,09,00,32,6.80
2002,05,09,00,33,6.70
2002,05,09,00,34,6.70
2002,05,09,00,35,6.70
2002,05,09,00,36,6.60
2002,05,09,00,37,6.60
2002,05,09,00,38,6.60
2002,05,09,00,39,6.60
2002,05,09,00,40,6.60
2002,05,09,00,41,6.60
2002,05,09,00,42,6.60
2002,05,09,00,43,6.60
2002,05,09,00,44,6.40
2002,05,09,00,45,6.40
2002,05,09,00,46,6.40
2002,05,09,00,47,6.40
2002,05,09,00,48,6.30
2002,05,09,00,49,6.30
2002,05,09,00,50,6.20
2002,05,09,00,51,6.20
2002,05,09,00,52,6.20
2002,05,09,00,53,6.20
2002,05,09,00,54,6.20
2002,05,09,00,55,6.10
2002,05,09,00,56,6.10
2002,05,09,00,57,6.10
2002,05,09,00,58,6.00
2002,05,09,00,59,6.00
2002,05,09,01,00,6.00
2002,05,09,01,01,5.90
2002,05,09,01,02,5.90
2002,05,09,01,03,5.90
2002,05,09,01,04,5.80
2002,05,09,01,05,5.80
2002,05,09,01,06,5.80
2002,05,09,01,07,5.70
2002,05,09,01,08,5.70
2002,05,09,01,09,5.70
2002,05,09,01,10,5.70
2002,05,09,01,11,5.70
2002,05,09,01,12,5.70
2002,05,09,01,13,5.70
2002,05,09,01,14,5.70
2002,05,09,01,15,5.70
2002,05,09,01,16,5.60
2002,05,09,01,17,5.70
2002,05,09,01,18,5.70
2002,05,09,01,19,5.70
2002,05,09,01,20,5.70
2002,05,09,01,21,5.70
2002,05,09,01,22,5.70
2002,05,09,01,23,5.70
2002,05,09,01,24,5.70
2002,05,09,01,25,5.80
2002,05,09,01,26,5.80
2002,05,09,01,27,5.80
2002,05,09,01,28,5.90
2002,05,09,01,29,5.90
2002,05,09,01,30,5.90
2002,05,09,01,31,5.90
2002,05,09,01,32,5.90
2002,05,09,01,33,5.90
2002,05,09,01,34,5.80
2002,05,09,01,35,5.80
2002,05,09,01,36,5.80
2002,05,09,01,37,5.80
2002,05,09,01,38,5.70
2002,05,09,01,39,5.70
2002,05,09,01,40,5.70
2002,05,09,01,41,5.70
2002,05,09,01,42,5.60
2002,05,09,01,43,5.60
2002,05,09,01,44,5.60
2002,05,09,01,45,5.50
2002,05,09,01,46,5.50
2002,05,09,01,47,5.50
2002,05,09,01,48,5.40
2002,05,09,01,49,5.40
2002,05,09,01,50,5.40
2002,05,09,01,51,5.30
2002,05,09,01,52,5.30
2002,05,09,01,53,5.30
2002,05,09,01,54,5.30
2002,05,09,01,55,5.30
2002,05,09,01,56,5.30
2002,05,09,01,57,5.30
2002,05,09,01,58,5.30
2002,05,09,01,59,5.20
2002,05,09,02,00,5.20
2002,05,09,02,01,5.20
2002,05,09,02,02,5.10
2002,05,09,02,03,5.10
2002,05,09,02,04,5.10
2002,05,09,02,05,5.10
2002,05,09,02,06,5.10
2002,05,09,02,07,5.10
2002,05,09,02,08,5.00
2002,05,09,02,09,4.90
2002,05,09,02,10,4.90
2002,05,09,02,11,4.90
2002,05,09,02,12,4.90
2002,05,09,02,13,4.90
2002,05,09,02,14,4.90
2002,05,09,02,15,4.90
2002,05,09,02,16,4.80
2002,05,09,02,17,4.80
2002,05,09,02,18,4.80
2002,05,09,02,19,4.80
2002,05,09,02,20,4.70
2002,05,09,02,21,4.70
2002,05,09,02,22,4.70
2002,05,09,02,23,4.70
2002,05,09,02,24,4.60
2002,05,09,02,25,4.60
2002,05,09,02,26,4.60
2002,05,09,02,27,4.60
2002,05,09,02,28,4.60
2002,05,09,02,29,4.60
2002,05,09,02,30,4.50
2002,05,09,02,31,4.50
2002,05,09,02,32,4.50
2002,05,09,02,33,4.40
2002,05,09,02,34,4.40
2002,05,09,02,35,4.40
2002,05,09,02,36,4.40
2002,05,09,02,37,4.40
2002,05,09,02,38,4.40
2002,05,09,02,39,4.40
2002,05,09,02,40,4.40
2002,05,09,02,41,4.30
2002,05,09,02,42,4.30
2002,05,09,02,43,4.30
2002,05,09,02,44,4.30
2002,05,09,02,45,4.30
2002,05,09,02,46,4.30
2002,05,09,02,47,4.20
2002,05,09,02,48,4.20
2002,05,09,02,49,4.20
2002,05,09,02,50,4.20
2002,05,09,02,51,4.20
2002,05,09,02,52,4.20
2002,05,09,02,53,4.20
2002,05,09,02,54,4.20
2002,05,09,02,55,4.20
2002,05,09,02,56,4.20
2002,05,09,02,57,4.20
2002,05,09,02,58,4.20
2002,05,09,02,59,4.20
2002,05,09,03,00,4.20
2002,05,09,03,01,4.10
2002,05,09,03,02,4.10
2002,05,09,03,03,4.10
2002,05,09,03,04,4.10
2002,05,09,03,05,4.00
2002,05,09,03,06,4.00
2002,05,09,03,07,4.00
2002,05,09,03,08,4.00
2002,05,09,03,09,4.00
2002,05,09,03,10,4.00
2002,05,09,03,11,4.00
2002,05,09,03,12,4.00
2002,05,09,03,13,4.00
2002,05,09,03,14,4.00
2002,05,09,03,15,3.90
2002,05,09,03,16,3.90
2002,05,09,03,17,3.90
2002,05,09,03,18,3.90
2002,05,09,03,19,3.90
2002,05,09,03,20,4.00
2002,05,09,03,21,4.00
2002,05,09,03,22,4.00
2002,05,09,03,23,4.00
2002,05,09,03,24,4.00
2002,05,09,03,25,4.00
2002,05,09,03,26,4.00
2002,05,09,03,27,4.00
2002,05,09,03,28,4.00
2002,05,09,03,29,4.00
2002,05,09,03,30,4.00
2002,05,09,03,31,4.10
2002,05,09,03,32,4.10
2002,05,09,03,33,4.10
2002,05,09,03,34,4.10
2002,05,09,03,35,4.10
2002,05,09,03,36,4.10
2002,05,09,03,37,4.10
2002,05,09,03,38,4.10
2002,05,09,03,39,4.20
2002,05,09,03,40,4.20
2002,05,09,03,41,4.20
2002,05,09,03,42,4.20
2002,05,09,03,43,4.30
2002,05,09,03,44,4.30
2002,05,09,03,45,4.30
2002,05,09,03,46,4.30
2002,05,09,03,47,4.30
2002,05,09,03,48,4.40
2002,05,09,03,49,4.40
2002,05,09,03,50,4.40
2002,05,09,03,51,4.40
2002,05,09,03,52,4.40
2002,05,09,03,53,4.40
2002,05,09,03,54,4.40
2002,05,09,03,55,4.40
2002,05,09,03,56,4.40
2002,05,09,03,57,4.30
2002,05,09,03,58,4.30
2002,05,09,03,59,4.20
2002,05,09,04,00,4.20
2002,05,09,04,01,4.20
2002,05,09,04,02,4.20
2002,05,09,04,03,4.20
2002,05,09,04,04,4.10
2002,05,09,04,05,4.10
2002,05,09,04,06,4.10
2002,05,09,04,07,4.00
2002,05,09,04,08,4.00
2002,05,09,04,09,4.00
2002,05,09,04,10,4.00
2002,05,09,04,11,3.90
2002,05,09,04,12,3.90
2002,05,09,04,13,3.80
2002,05,09,04,14,3.80
2002,05,09,04,15,3.80
2002,05,09,04,16,3.80
2002,05,09,04,17,3.80
2002,05,09,04,18,3.80
2002,05,09,04,19,3.80
2002,05,09,04,20,3.70
2002,05,09,04,21,3.70
2002,05,09,04,22,3.70
2002,05,09,04,23,3.70
2002,05,09,04,24,3.60
2002,05,09,04,25,3.60
2002,05,09,04,26,3.60
2002,05,09,04,27,3.60
2002,05,09,04,28,3.60
2002,05,09,04,29,3.60
2002,05,09,04,30,3.60
2002,05,09,04,31,3.60
2002,05,09,04,32,3.60
2002,05,09,04,33,3.60
2002,05,09,04,34,3.60
2002,05,09,04,35,3.60
2002,05,09,04,36,3.60
2002,05,09,04,37,3.60
2002,05,09,04,38,3.60
2002,05,09,04,39,3.60
2002,05,09,04,40,3.60
2002,05,09,04,41,3.60
2002,05,09,04,42,3.60
2002,05,09,04,43,3.60
2002,05,09,04,44,3.60
2002,05,09,04,45,3.60
2002,05,09,04,46,3.50
2002,05,09,04,47,3.50
2002,05,09,04,48,3.50
2002,05,09,04,49,3.50
2002,05,09,04,50,3.50
2002,05,09,04,51,3.40
2002,05,09,04,52,3.40
2002,05,09,04,53,3.40
2002,05,09,04,54,3.40
2002,05,09,04,55,3.40
2002,05,09,04,56,3.40
2002,05,09,04,57,3.40
2002,05,09,04,58,3.40
2002,05,09,04,59,3.40
2002,05,09,05,00,3.40
2002,05,09,05,01,3.40
2002,05,09,05,02,3.40
2002,05,09,05,03,3.30
2002,05,09,05,04,3.30
2002,05,09,05,05,3.30
2002,05,09,05,06,3.30
2002,05,09,05,07,3.30
2002,05,09,05,08,3.30
2002,05,09,05,09,3.30
2002,05,09,05,10,3.30
2002,05,09,05,11,3.30
2002,05,09,05,12,3.30
2002,05,09,05,13,3.30
2002,05,09,05,14,3.30
2002,05,09,05,15,3.30
2002,05,09,05,16,3.30
2002,05,09,05,17,3.30
2002,05,09,05,18,3.30
2002,05,09,05,19,3.30
2002,05,09,05,20,3.30
2002,05,09,05,21,3.30
2002,05,09,05,22,3.30
2002,05,09,05,23,3.20
2002,05,09,05,24,3.20
2002,05,09,05,25,3.20
2002,05,09,05,26,3.20
2002,05,09,05,27,3.20
2002,05,09,05,28,3.20
2002,05,09,05,29,3.20
2002,05,09,05,30,3.20
2002,05,09,05,31,3.20
2002,05,09,05,32,3.20
2002,05,09,05,33,3.20
2002,05,09,05,34,3.20
2002,05,09,05,35,3.20
2002,05,09,05,36,3.20
2002,05,09,05,37,3.20
2002,05,09,05,38,3.10
2002,05,09,05,39,3.20
2002,05,09,05,40,3.20
2002,05,09,05,41,3.20
2002,05,09,05,42,3.20
2002,05,09,05,43,3.20
2002,05,09,05,44,3.20
2002,05,09,05,45,3.20
2002,05,09,05,46,3.30
2002,05,09,05,47,3.30
2002,05,09,05,48,3.30
2002,05,09,05,49,3.30
2002,05,09,05,50,3.30
2002,05,09,05,51,3.30
2002,05,09,05,52,3.30
2002,05,09,05,53,3.30
2002,05,09,05,54,3.30
2002,05,09,05,55,3.30
2002,05,09,05,56,3.30
2002,05,09,05,57,3.30
2002,05,09,05,58,3.30
2002,05,09,05,59,3.30
2002,05,09,06,00,3.30
2002,05,09,06,01,3.30
2002,05,09,06,02,3.40
2002,05,09,06,03,3.40
2002,05,09,06,04,3.40
2002,05,09,06,05,3.40
2002,05,09,06,06,3.40
2002,05,09,06,07,3.40
2002,05,09,06,08,3.40
2002,05,09,06,09,3.40
2002,05,09,06,10,3.50
2002,05,09,06,11,3.50
2002,05,09,06,12,3.60
2002,05,09,06,13,3.60
2002,05,09,06,14,3.70
2002,05,09,06,15,3.70
2002,05,09,06,16,3.70
2002,05,09,06,17,3.80
2002,05,09,06,18,3.80
2002,05,09,06,19,3.80
2002,05,09,06,20,3.80
2002,05,09,06,21,3.90
2002,05,09,06,22,3.90
2002,05,09,06,23,4.00
2002,05,09,06,24,4.00
2002,05,09,06,25,4.00
2002,05,09,06,26,4.10
2002,05,09,06,27,4.10
2002,05,09,06,28,4.20
2002,05,09,06,29,4.20
2002,05,09,06,30,4.20
2002,05,09,06,31,4.20
2002,05,09,06,32,4.20
2002,05,09,06,33,4.20
2002,05,09,06,34,4.20
2002,05,09,06,35,4.30
2002,05,09,06,36,4.30
2002,05,09,06,37,4.30
2002,05,09,06,38,4.20
2002,05,09,06,39,4.20
2002,05,09,06,40,4.30
2002,05,09,06,41,4.30
2002,05,09,06,42,4.30
2002,05,09,06,43,4.40
2002,05,09,06,44,4.40
2002,05,09,06,45,4.50
2002,05,09,06,46,4.50
2002,05,09,06,47,4.50
2002,05,09,06,48,4.60
2002,05,09,06,49,4.60
2002,05,09,06,50,4.60
2002,05,09,06,51,4.60
2002,05,09,06,52,4.60
2002,05,09,06,53,4.70
2002,05,09,06,54,4.70
2002,05,09,06,55,4.70
2002,05,09,06,56,4.80
2002,05,09,06,57,4.90
2002,05,09,06,58,4.90
2002,05,09,06,59,4.90
2002,05,09,07,00,5.00
2002,05,09,07,01,5.10
2002,05,09,07,02,5.10
2002,05,09,07,03,5.10
2002,05,09,07,04,5.10
2002,05,09,07,05,5.20
2002,05,09,07,06,5.30
2002,05,09,07,07,5.30
2002,05,09,07,08,5.30
2002,05,09,07,09,5.30
2002,05,09,07,10,5.40
2002,05,09,07,11,5.40
2002,05,09,07,12,5.40
2002,05,09,07,13,5.40
2002,05,09,07,14,5.40
2002,05,09,07,15,5.40
2002,05,09,07,16,5.50
2002,05,09,07,17,5.50
2002,05,09,07,18,5.60
2002,05,09,07,19,5.70
2002,05,09,07,20,5.70
2002,05,09,07,21,5.80
2002,05,09,07,22,5.90
2002,05,09,07,23,5.90
2002,05,09,07,24,6.00
2002,05,09,07,25,6.10
2002,05,09,07,26,6.10
2002,05,09,07,27,6.20
2002,05,09,07,28,6.20
2002,05,09,07,29,6.20
2002,05,09,07,30,6.30
2002,05,09,07,31,6.30
2002,05,09,07,32,6.40
2002,05,09,07,33,6.40
2002,05,09,07,34,6.50
2002,05,09,07,35,6.60
2002,05,09,07,36,6.60
2002,05,09,07,37,6.60
2002,05,09,07,38,6.60
2002,05,09,07,39,6.60
2002,05,09,07,40,6.70
2002,05,09,07,41,6.70
2002,05,09,07,42,6.80
2002,05,09,07,43,6.80
2002,05,09,07,44,6.80
2002,05,09,07,45,6.80
2002,05,09,07,46,6.90
2002,05,09,07,47,7.00
2002,05,09,07,48,7.00
2002,05,09,07,49,7.00
2002,05,09,07,50,7.10
2002,05,09,07,51,7.10
2002,05,09,07,52,7.10
2002,05,09,07,53,7.20
2002,05,09,07,54,7.30
2002,05,09,07,55,7.30
2002,05,09,07,56,7.40
2002,05,09,07,57,7.40
2002,05,09,07,58,7.50
2002,05,09,07,59,7.60
2002,05,09,08,00,7.60
2002,05,09,08,01,7.70
2002,05,09,08,02,7.70
2002,05,09,08,03,7.80
2002,05,09,08,04,7.80
2002,05,09,08,05,7.90
2002,05,09,08,06,8.00
2002,05,09,08,07,8.10
2002,05,09,08,08,8.10
2002,05,09,08,09,8.20
2002,05,09,08,10,8.20
2002,05,09,08,11,8.10
2002,05,09,08,12,8.10
2002,05,09,08,13,8.20
2002,05,09,08,14,8.20
2002,05,09,08,15,8.20
2002,05,09,08,16,8.20
2002,05,09,08,17,8.20
2002,05,09,08,18,8.20
2002,05,09,08,19,8.20
2002,05,09,08,20,8.20
2002,05,09,08,21,8.30
2002,05,09,08,22,8.40
2002,05,09,08,23,8.50
2002,05,09,08,24,8.60
2002,05,09,08,25,8.80
2002,05,09,08,26,8.90
2002,05,09,08,27,9.00
2002,05,09,08,28,9.10
2002,05,09,08,29,9.10
2002,05,09,08,30,9.20
2002,05,09,08,31,9.40
2002,05,09,08,32,9.40
2002,05,09,08,33,9.60
2002,05,09,08,34,9.70
2002,05,09,08,35,9.70
2002,05,09,08,36,9.70
2002,05,09,08,37,9.70
2002,05,09,08,38,9.70
2002,05,09,08,39,9.70
2002,05,09,08,40,9.70
2002,05,09,08,41,9.70
2002,05,09,08,42,9.70
2002,05,09,08,43,9.80
2002,05,09,08,44,9.90
2002,05,09,08,45,9.90
2002,05,09,08,46,9.90
2002,05,09,08,47,9.90
2002,05,09,08,48,10.10
2002,05,09,08,49,10.10
2002,05,09,08,50,10.20
2002,05,09,08,51,10.20
2002,05,09,08,52,10.20
2002,05,09,08,53,10.20
2002,05,09,08,54,10.20
2002,05,09,08,55,10.20
2002,05,09,08,56,10.10
2002,05,09,08,57,10.10
2002,05,09,08,58,10.00
2002,05,09,08,59,9.90
2002,05,09,09,00,9.90
2002,05,09,09,01,9.90
2002,05,09,09,02,9.80
2002,05,09,09,03,9.80
2002,05,09,09,04,9.90
2002,05,09,09,05,9.80
2002,05,09,09,06,9.70
2002,05,09,09,07,9.70
2002,05,09,09,08,9.80
2002,05,09,09,09,9.80
2002,05,09,09,10,9.80
2002,05,09,09,11,9.80
2002,05,09,09,12,9.90
2002,05,09,09,13,9.90
2002,05,09,09,14,9.90
2002,05,09,09,15,10.00
2002,05,09,09,16,10.10
2002,05,09,09,17,9.90
2002,05,09,09,18,9.90
2002,05,09,09,19,9.90
2002,05,09,09,20,10.00
2002,05,09,09,21,10.10
2002,05,09,09,22,10.10
2002,05,09,09,23,10.10
2002,05,09,09,24,10.10
2002,05,09,09,25,10.20
2002,05,09,09,26,10.20
2002,05,09,09,27,10.20
2002,05,09,09,28,10.20
2002,05,09,09,29,10.10
2002,05,09,09,30,10.10
2002,05,09,09,31,10.10
2002,05,09,09,32,10.00
2002,05,09,09,33,9.90
2002,05,09,09,34,9.90
2002,05,09,09,35,9.90
2002,05,09,09,36,9.90
2002,05,09,09,37,9.90
2002,05,09,09,38,9.90
2002,05,09,09,39,9.90
2002,05,09,09,40,9.80
2002,05,09,09,41,9.80
2002,05,09,09,42,9.80
2002,05,09,09,43,9.80
2002,05,09,09,44,9.80
2002,05,09,09,45,9.90
2002,05,09,09,46,10.00
2002,05,09,09,47,10.10
2002,05,09,09,48,10.20
2002,05,09,09,49,10.20
2002,05,09,09,50,10.10
2002,05,09,09,51,10.10
2002,05,09,09,52,10.10
2002,05,09,09,53,10.20
2002,05,09,09,54,10.30
2002,05,09,09,55,10.40
2002,05,09,09,56,10.40
2002,05,09,09,57,10.40
2002,05,09,09,58,10.40
2002,05,09,09,59,10.40
2002,05,09,10,00,10.40
2002,05,09,10,01,10.50
2002,05,09,10,02,10.40
2002,05,09,10,03,10.50
2002,05,09,10,04,10.60
2002,05,09,10,05,10.60
2002,05,09,10,06,10.60
2002,05,09,10,07,10.70
2002,05,09,10,08,10.80
2002,05,09,10,09,10.90
2002,05,09,10,10,10.90
2002,05,09,10,11,10.90
2002,05,09,10,12,10.90
2002,05,09,10,13,10.90
2002,05,09,10,14,10.90
2002,05,09,10,15,10.90
2002,05,09,10,16,10.90
2002,05,09,10,17,10.80
2002,05,09,10,18,10.60
2002,05,09,10,19,10.70
2002,05,09,10,20,10.80
2002,05,09,10,21,10.70
2002,05,09,10,22,10.60
2002,05,09,10,23,10.70
2002,05,09,10,24,10.80
2002,05,09,10,25,10.90
2002,05,09,10,26,10.90
2002,05,09,10,27,10.90
2002,05,09,10,28,10.90
2002,05,09,10,29,10.80
2002,05,09,10,30,10.90
2002,05,09,10,31,10.90
2002,05,09,10,32,11.10
2002,05,09,10,33,11.10
2002,05,09,10,34,11.20
2002,05,09,10,35,11.20
2002,05,09,10,36,11.30
2002,05,09,10,37,11.30
2002,05,09,10,38,11.40
2002,05,09,10,39,11.30
2002,05,09,10,40,11.30
2002,05,09,10,41,11.30
2002,05,09,10,42,11.30
2002,05,09,10,43,11.20
2002,05,09,10,44,11.30
2002,05,09,10,45,11.40
2002,05,09,10,46,11.40
2002,05,09,10,47,11.50
2002,05,09,10,48,11.50
2002,05,09,10,49,11.60
2002,05,09,10,50,11.60
2002,05,09,10,51,11.40
2002,05,09,10,52,11.20
2002,05,09,10,53,11.00
2002,05,09,10,54,10.80
2002,05,09,10,55,10.80
2002,05,09,10,56,10.70
2002,05,09,10,57,10.50
2002,05,09,10,58,10.50
2002,05,09,10,59,10.40
2002,05,09,11,00,10.40
2002,05,09,11,01,10.50
2002,05,09,11,02,10.70
2002,05,09,11,03,10.80
2002,05,09,11,04,10.90
2002,05,09,11,05,10.90
2002,05,09,11,06,10.60
2002,05,09,11,07,10.50
2002,05,09,11,08,10.40
2002,05,09,11,09,10.40
2002,05,09,11,10,10.40
2002,05,09,11,11,10.30
2002,05,09,11,12,10.40
2002,05,09,11,13,10.50
2002,05,09,11,14,10.50
2002,05,09,11,15,10.60
2002,05,09,11,16,10.50
2002,05,09,11,17,10.50
2002,05,09,11,18,10.60
2002,05,09,11,19,10.60
2002,05,09,11,20,10.60
2002,05,09,11,21,10.60
2002,05,09,11,22,10.70
2002,05,09,11,23,10.60
2002,05,09,11,24,10.60
2002,05,09,11,25,10.50
2002,05,09,11,26,10.50
2002,05,09,11,27,10.40
2002,05,09,11,28,10.40
2002,05,09,11,29,10.40
2002,05,09,11,30,10.40
2002,05,09,11,31,10.40
2002,05,09,11,32,10.50
2002,05,09,11,33,10.60
2002,05,09,11,34,10.40
2002,05,09,11,35,10.60
2002,05,09,11,36,10.70
2002,05,09,11,37,10.60
2002,05,09,11,38,10.70
2002,05,09,11,39,10.80
2002,05,09,11,40,10.90
2002,05,09,11,41,10.80
2002,05,09,11,42,10.80
2002,05,09,11,43,10.70
2002,05,09,11,44,10.70
2002,05,09,11,45,10.70
2002,05,09,11,46,10.70
2002,05,09,11,47,10.80
2002,05,09,11,48,10.90
2002,05,09,11,49,10.90
2002,05,09,11,50,11.00
2002,05,09,11,51,11.20
2002,05,09,11,52,11.40
2002,05,09,11,53,11.60
2002,05,09,11,54,11.60
2002,05,09,11,55,11.70
2002,05,09,11,56,11.80
2002,05,09,11,57,11.80
2002,05,09,11,58,11.80
2002,05,09,11,59,11.70
2002,05,09,12,00,11.60
2002,05,09,12,01,11.40
2002,05,09,12,02,11.20
2002,05,09,12,03,11.10
2002,05,09,12,04,11.20
2002,05,09,12,05,11.30
2002,05,09,12,06,11.30
2002,05,09,12,07,11.30
2002,05,09,12,08,11.40
2002,05,09,12,09,11.20
2002,05,09,12,10,11.10
2002,05,09,12,11,11.10
2002,05,09,12,12,11.20
2002,05,09,12,13,11.20
2002,05,09,12,14,11.30
2002,05,09,12,15,11.20
2002,05,09,12,16,11.10
2002,05,09,12,17,11.10
2002,05,09,12,18,11.10
2002,05,09,12,19,11.10
2002,05,09,12,20,11.10
2002,05,09,12,21,11.20
2002,05,09,12,22,11.30
2002,05,09,12,23,11.60
2002,05,09,12,24,11.60
2002,05,09,12,25,11.60
2002,05,09,12,26,11.60
2002,05,09,12,27,11.50
2002,05,09,12,28,11.50
2002,05,09,12,29,11.40
2002,05,09,12,30,11.40
2002,05,09,12,31,11.40
2002,05,09,12,32,11.30
2002,05,09,12,33,11.30
2002,05,09,12,34,11.20
2002,05,09,12,35,11.20
2002,05,09,12,36,11.20
2002,05,09,12,37,11.30
2002,05,09,12,38,11.50
2002,05,09,12,39,11.40
2002,05,09,12,40,11.60
2002,05,09,12,41,11.60
2002,05,09,12,42,11.60
2002,05,09,12,43,11.60
2002,05,09,12,44,11.60
2002,05,09,12,45,11.50
2002,05,09,12,46,11.30
2002,05,09,12,47,11.30
2002,05,09,12,48,11.30
2002,05,09,12,49,11.40
2002,05,09,12,50,11.40
2002,05,09,12,51,11.30
2002,05,09,12,52,11.30
2002,05,09,12,53,11.20
2002,05,09,12,54,11.20
2002,05,09,12,55,11.20
2002,05,09,12,56,11.10
2002,05,09,12,57,11.10
2002,05,09,12,58,11.20
2002,05,09,12,59,11.30
2002,05,09,13,00,11.40
2002,05,09,13,01,11.40
2002,05,09,13,02,11.30
2002,05,09,13,03,11.30
2002,05,09,13,04,11.30
2002,05,09,13,05,11.30
2002,05,09,13,06,11.50
2002,05,09,13,07,11.70
2002,05,09,13,08,11.70
2002,05,09,13,09,11.60
2002,05,09,13,10,11.60
2002,05,09,13,11,11.60
2002,05,09,13,12,11.60
2002,05,09,13,13,11.60
2002,05,09,13,14,11.60
2002,05,09,13,15,11.60
2002,05,09,13,16,11.50
2002,05,09,13,17,11.40
2002,05,09,13,18,11.40
2002,05,09,13,19,11.50
2002,05,09,13,20,11.50
2002,05,09,13,21,11.60
2002,05,09,13,22,11.80
2002,05,09,13,23,11.80
2002,05,09,13,24,11.70
2002,05,09,13,25,11.60
2002,05,09,13,26,11.60
2002,05,09,13,27,11.60
2002,05,09,13,28,11.60
2002,05,09,13,29,11.60
2002,05,09,13,30,11.60
2002,05,09,13,31,11.60
2002,05,09,13,32,11.60
2002,05,09,13,33,11.60
2002,05,09,13,34,11.60
2002,05,09,13,35,11.60
2002,05,09,13,36,11.60
2002,05,09,13,37,11.60
2002,05,09,13,38,11.50
2002,05,09,13,39,11.50
2002,05,09,13,40,11.60
2002,05,09,13,41,11.60
2002,05,09,13,42,11.60
2002,05,09,13,43,11.40
2002,05,09,13,44,11.40
2002,05,09,13,45,11.30
2002,05,09,13,46,11.20
2002,05,09,13,47,11.20
2002,05,09,13,48,11.10
2002,05,09,13,49,11.10
2002,05,09,13,50,11.00
2002,05,09,13,51,11.00
2002,05,09,13,52,10.90
2002,05,09,13,53,11.00
2002,05,09,13,54,11.10
2002,05,09,13,55,11.10
2002,05,09,13,56,11.20
2002,05,09,13,57,11.30
2002,05,09,13,58,11.50
2002,05,09,13,59,11.60
2002,05,09,14,00,11.40
2002,05,09,14,01,11.50
2002,05,09,14,02,11.40
2002,05,09,14,03,11.60
2002,05,09,14,04,11.40
2002,05,09,14,05,11.60
2002,05,09,14,06,11.60
2002,05,09,14,07,11.60
2002,05,09,14,08,11.40
2002,05,09,14,09,11.40
2002,05,09,14,10,11.40
2002,05,09,14,11,11.30
2002,05,09,14,12,11.30
2002,05,09,14,13,11.30
2002,05,09,14,14,11.20
2002,05,09,14,15,11.20
2002,05,09,14,16,11.30
2002,05,09,14,17,11.20
2002,05,09,14,18,11.30
2002,05,09,14,19,11.40
2002,05,09,14,20,11.60
2002,05,09,14,21,11.60
2002,05,09,14,22,11.60
2002,05,09,14,23,11.60
2002,05,09,14,24,11.60
2002,05,09,14,25,11.80
2002,05,09,14,26,11.70
2002,05,09,14,27,11.80
2002,05,09,14,28,11.80
2002,05,09,14,29,11.80
2002,05,09,14,30,11.90
2002,05,09,14,31,12.10
2002,05,09,14,32,12.30
2002,05,09,14,33,12.30
2002,05,09,14,34,12.20
2002,05,09,14,35,12.10
2002,05,09,14,36,12.30
2002,05,09,14,37,12.40
2002,05,09,14,38,12.40
2002,05,09,14,39,12.60
2002,05,09,14,40,12.90
2002,05,09,14,41,13.10
2002,05,09,14,42,13.30
2002,05,09,14,43,13.30
2002,05,09,14,44,13.40
2002,05,09,14,45,13.20
2002,05,09,14,46,13.20
2002,05,09,14,47,13.20
2002,05,09,14,48,13.30
2002,05,09,14,49,13.40
2002,05,09,14,50,13.70
2002,05,09,14,51,14.00
2002,05,09,14,52,14.10
2002,05,09,14,53,14.20
2002,05,09,14,54,14.20
2002,05,09,14,55,14.10
2002,05,09,14,56,14.10
2002,05,09,14,57,14.10
2002,05,09,14,58,14.00
2002,05,09,14,59,13.90
2002,05,09,15,00,13.70
2002,05,09,15,01,13.70
2002,05,09,15,02,13.50
2002,05,09,15,03,13.30
2002,05,09,15,04,13.10
2002,05,09,15,05,12.90
2002,05,09,15,06,12.70
2002,05,09,15,07,12.60
2002,05,09,15,08,12.40
2002,05,09,15,09,12.30
2002,05,09,15,10,12.20
2002,05,09,15,11,12.10
2002,05,09,15,12,12.10
2002,05,09,15,13,12.10
2002,05,09,15,14,12.00
2002,05,09,15,15,12.10
2002,05,09,15,16,12.10
2002,05,09,15,17,12.10
2002,05,09,15,18,11.90
2002,05,09,15,19,11.80
2002,05,09,15,20,11.80
2002,05,09,15,21,11.80
2002,05,09,15,22,11.80
2002,05,09,15,23,11.80
2002,05,09,15,24,11.70
2002,05,09,15,25,11.70
2002,05,09,15,26,11.60
2002,05,09,15,27,11.60
2002,05,09,15,28,11.50
2002,05,09,15,29,11.50
2002,05,09,15,30,11.50
2002,05,09,15,31,11.60
2002,05,09,15,32,11.50
2002,05,09,15,33,11.40
2002,05,09,15,34,11.30
2002,05,09,15,35,11.30
2002,05,09,15,36,11.30
2002,05,09,15,37,11.20
2002,05,09,15,38,11.10
2002,05,09,15,39,11.10
2002,05,09,15,40,11.10
2002,05,09,15,41,11.10
2002,05,09,15,42,11.10
2002,05,09,15,43,10.90
2002,05,09,15,44,10.90
2002,05,09,15,45,10.80
2002,05,09,15,46,10.80
2002,05,09,15,47,10.80
2002,05,09,15,48,10.80
2002,05,09,15,49,10.80
2002,05,09,15,50,10.90
2002,05,09,15,51,10.90
2002,05,09,15,52,10.90
2002,05,09,15,53,11.10
2002,05,09,15,54,11.10
2002,05,09,15,55,11.10
2002,05,09,15,56,11.10
2002,05,09,15,57,11.10
2002,05,09,15,58,11.10
2002,05,09,15,59,11.10
2002,05,09,16,00,11.10
2002,05,09,16,01,11.10
2002,05,09,16,02,11.10
2002,05,09,16,03,11.10
2002,05,09,16,04,11.20
2002,05,09,16,05,11.30
2002,05,09,16,06,11.40
2002,05,09,16,07,11.40
2002,05,09,16,08,11.40
2002,05,09,16,09,11.50
2002,05,09,16,10,11.60
2002,05,09,16,11,11.70
2002,05,09,16,12,11.80
2002,05,09,16,13,11.90
2002,05,09,16,14,12.00
2002,05,09,16,15,12.00
2002,05,09,16,16,12.10
2002,05,09,16,17,12.10
2002,05,09,16,18,12.10
2002,05,09,16,19,12.20
2002,05,09,16,20,12.30
2002,05,09,16,21,12.30
2002,05,09,16,22,12.20
2002,05,09,16,23,12.20
2002,05,09,16,24,12.30
2002,05,09,16,25,12.30
2002,05,09,16,26,12.20
2002,05,09,16,27,12.20
2002,05,09,16,28,12.20
2002,05,09,16,29,12.20
2002,05,09,16,30,12.30
2002,05,09,16,31,12.30
2002,05,09,16,32,12.30
2002,05,09,16,33,12.40
2002,05,09,16,34,12.30
2002,05,09,16,35,12.30
2002,05,09,16,36,12.30
2002,05,09,16,37,12.30
2002,05,09,16,38,12.30
2002,05,09,16,39,12.30
2002,05,09,16,40,12.30
2002,05,09,16,41,12.20
2002,05,09,16,42,12.30
2002,05,09,16,43,12.40
2002,05,09,16,44,12.50
2002,05,09,16,45,12.60
2002,05,09,16,46,12.60
2002,05,09,16,47,12.70
2002,05,09,16,48,12.70
2002,05,09,16,49,12.80
2002,05,09,16,50,12.80
2002,05,09,16,51,12.90
2002,05,09,16,52,12.90
2002,05,09,16,53,12.90
2002,05,09,16,54,12.80
2002,05,09,16,55,12.80
2002,05,09,16,56,12.80
2002,05,09,16,57,12.80
2002,05,09,16,58,12.80
2002,05,09,16,59,12.80
2002,05,09,17,00,12.80
2002,05,09,17,01,12.80
2002,05,09,17,02,12.80
2002,05,09,17,03,12.80
2002,05,09,17,04,12.90
2002,05,09,17,05,13.00
2002,05,09,17,06,12.90
2002,05,09,17,07,12.90
2002,05,09,17,08,12.90
2002,05,09,17,09,12.70
2002,05,09,17,10,12.70
2002,05,09,17,11,12.80
2002,05,09,17,12,12.80
2002,05,09,17,13,12.90
2002,05,09,17,14,13.00
2002,05,09,17,15,13.00
2002,05,09,17,16,13.10
2002,05,09,17,17,13.10
2002,05,09,17,18,13.10
2002,05,09,17,19,13.10
2002,05,09,17,20,13.10
2002,05,09,17,21,13.00
2002,05,09,17,22,12.90
2002,05,09,17,23,12.90
2002,05,09,17,24,12.90
2002,05,09,17,25,12.90
2002,05,09,17,26,12.90
2002,05,09,17,27,13.00
2002,05,09,17,28,13.10
2002,05,09,17,29,13.10
2002,05,09,17,30,13.10
2002,05,09,17,31,13.00
2002,05,09,17,32,13.00
2002,05,09,17,33,13.10
2002,05,09,17,34,13.10
2002,05,09,17,35,13.10
2002,05,09,17,36,13.20
2002,05,09,17,37,13.20
2002,05,09,17,38,13.30
2002,05,09,17,39,13.30
2002,05,09,17,40,13.30
2002,05,09,17,41,13.40
2002,05,09,17,42,13.50
2002,05,09,17,43,13.60